Location: A O Calhoun Middle School
(33.2198°N, 97.1397°W)
Time: 08:35:29
(UTC+00:00)

Cosmos 1500 Rocket - Pass Details

Date: 08 December 2021
Orbit: 602 x 632 km, 82.5° (Epoch: 25 January)

Event Time Altitude Azimuth Distance (km) Brightness Sun altitude
Rises 12:22:10 0° 201° (SSW) 2,900 7.0 -11.9°
Reaches altitude 10° 12:24:28 10° 208° (SSW) 2,000 6.1 -11.5°
Maximum altitude 12:28:41 42° 279° (W) 899 3.9 -10.6°
Drops below altitude 10° 12:32:57 10° 351° (N) 2,018 5.9 -9.8°
Sets 12:35:18 0° 359° (N) 2,929 6.8 -9.4°
